Regional Weather Roundup
Issued by NWS

Home | Current Version | Previous Version | Text Only | Print | Product List | Glossary Off
Versions: 1 2 3 4 5 6 7 8 9 10 11 12 13 14 15 16 17 18 19 20 21 22 23 24 25 26 27 28 29 30 31 32 33 34 35 36 37 38 39 40 41 42 43 44 45 46 47 48 49 50

000
ASUS43 KOAX 291202
RWRNE

WEATHER ROUNDUP FOR NEBRASKA
NATIONAL WEATHER SERVICE OMAHA NE
700 AM CDT TUE JUL 29 2014

NOTES: SATELLITE DATA IS BEING USED TO AUGMENT CLOUD COVER ABOVE
       12000 FEET.
       "FAIR" INDICATES FEW OR NO CLOUDS BELOW 12,000 FEET WITH NO
       SIGNIFICANT WEATHER AND/OR OBSTRUCTIONS TO VISIBILITY.

  * THESE STATIONS DO NOT REPORT WEATHER SUCH AS RAIN...SNOW OR FOG.

NEZ001>004-019>022-054>056-291300-
NEBRASKA PANHANDLE

CITY           SKY/WX    TMP DP  RH WIND       PRES   REMARKS
SCOTTSBLUFF    CLEAR     58  57  97 E5        30.22S
6HR MIN TEMP:  58; 6HR MAX TEMP:  68;

ALLIANCE       CLEAR     58  56  93 E8        30.24R
6HR MIN TEMP:  57; 6HR MAX TEMP:  66;

CHADRON        PTCLDY    60  54  80 CALM      30.23S
6HR MIN TEMP:  59; 6HR MAX TEMP:  65;

KIMBALL        CLEAR     56  55  94 NE3       30.23S
SIDNEY         CLEAR     56  53  90 E7        30.23R
6HR MIN TEMP:  56; 6HR MAX TEMP:  64;

$$

NEZ057>060-069>072-079>082-291300-
SOUTHWEST NEBRASKA

CITY           SKY/WX    TMP DP  RH WIND       PRES   REMARKS
NORTH PLATTE   CLEAR     57  55  93 E7        30.24R FOG
6HR MIN TEMP:  56; 6HR MAX TEMP:  62;

IMPERIAL       CLEAR     58  55  90 E8        30.21R
6HR MIN TEMP:  58; 6HR MAX TEMP:  66;

LEXINGTON      PTCLDY    58  56  94 E3        30.24S FOG
MCCOOK         CLEAR     58  55  90 E7        30.21R
6HR MIN TEMP:  58; 6HR MAX TEMP:  67;

OGALLALA       CLEAR     57  55  94 E10       30.22S
$$

NEZ005>010-023>029-035>040-094-291300-
NORTH CENTRAL NEBRASKA

CITY           SKY/WX    TMP DP  RH WIND       PRES   REMARKS
VALENTINE      MOCLDY    55  52  89 CALM      30.25S
6HR MIN TEMP:  55; 6HR MAX TEMP:  61;

AINSWORTH      MOCLDY    56  55  98 S7        30.25S
BROKEN BOW     LGT RAIN  61  58  90 E5        30.24S
6HR MIN TEMP:  59; 6HR MAX TEMP:  63; 6HR PCP:  0.06;

O`NEILL        CLEAR     54  50  86 CALM      30.24S
ORD            MOCLDY    60  58  92 CALM      30.23S
6HR MIN TEMP:  55; 6HR MAX TEMP:  60; 6HR PCP:  0.10;

$$

NEZ041-046>049-061>064-073>077-083>087-291300-
SOUTH CENTRAL NEBRASKA

CITY           SKY/WX    TMP DP  RH WIND       PRES   REMARKS
GRAND ISLAND   LGT RAIN  64  60  87 CALM      30.24S
6HR MIN TEMP:  62; 6HR MAX TEMP:  65; 6HR PCP:  0.13;

AURORA         CLOUDY    63  61  94 CALM      30.24R
HASTINGS       CLOUDY    64  56  75 CALM      30.24R
6HR MIN TEMP:  64; 6HR MAX TEMP:  67;

HEBRON         CLOUDY    63  56  77 CALM      30.21S
HOLDREGE       PTCLDY    59  56  91 E6        30.23S
KEARNEY *      CLOUDY    61  55  82 NE5       30.24S
YORK           CLOUDY    61  61 100 CALM      30.23R
$$

NEZ011>018-030>034-042>045-291300-
NORTHEAST NEBRASKA

CITY           SKY/WX    TMP DP  RH WIND       PRES   REMARKS
NORFOLK        CLEAR     53  51  93 W3        30.23R
6HR MIN TEMP:  52; 6HR MAX TEMP:  57;

ALBION         CLEAR     51  50  95 NW3       30.24R FOG
BLAIR          CLEAR     56  54  92 NW3       30.20S
COLUMBUS *     CLEAR     54  48  82 CALM      30.22S
FREMONT        CLEAR     56  54  92 W6        30.21S
TEKAMAH        CLEAR     56  53  90 NW5       30.21R
6HR MIN TEMP:  54; 6HR MAX TEMP:  60;

WAYNE          CLEAR     51  50  96 CALM      30.23S
$$

NEZ050>053-065>068-078-088>093-291300-
SOUTHEAST NEBRASKA

CITY           SKY/WX    TMP DP  RH WIND       PRES   REMARKS
LINCOLN        PTCLDY    58  53  84 NW3       30.22S
6HR MIN TEMP:  54; 6HR MAX TEMP:  64;

OMAHA EPPLEY   PTCLDY    59  56  89 N3        30.21R
6HR MIN TEMP:  56; 6HR MAX TEMP:  64;

BEATRICE       MOCLDY    58  56  92 CALM      30.21S
FALLS CITY     CLEAR     55  53  93 NW3       30.19R
6HR MIN TEMP:  54; 6HR MAX TEMP:  61;

NEBRASKA CITY  CLEAR     56  56 100 NW5       30.20R
PLATTSMOUTH    CLEAR     56  54  92 CALM      30.20S
$$

NEZ044-045-051>053-067-291300-
OMAHA AREA

CITY           SKY/WX    TMP DP  RH WIND       PRES   REMARKS
OMAHA EPPLEY   PTCLDY    59  56  89 N3        30.21R
6HR MIN TEMP:  56; 6HR MAX TEMP:  64;

BLAIR          CLEAR     56  54  92 NW3       30.20S
FREMONT        CLEAR     56  54  92 W6        30.21S
MILLARD        CLEAR     58  56  92 CALM      30.20S
OFFUTT AFB     CLEAR     55  55 100 NW3       30.20R
PLATTSMOUTH    CLEAR     56  54  92 CALM      30.20S
WAHOO          FAIR      55  53  91 NW5       30.21S
$$



USA.gov is the U.S. government's official web portal to all federal, state and local government web resources and services.